[Date Prev][Date Next][Thread Prev][Thread Next] - [Date Index][Thread Index][Author Index]

2 Line ISS Keps 6-27



ISS
1 25544U 98067A   05177.88666667  .00009235  00000-0  70262-4 0  7845
2 25544 051.6425 211.1799 0004068 314.7196 051.4806 15.73123810377219
----
Via the sarex mailing list at AMSAT.ORG courtesy of AMSAT-NA.
To unsubscribe, send "unsubscribe sarex" to Majordomo@amsat.org



AMSAT Top AMSAT Home